FW8396 Weather Reports


Display with metric or nautical units.
time (UTC)temp
F
wind
direction
speed
MPH
gust
MPH
rain 1hr
in
rain 24hr
in
rain mn
in
humidity
%
barometer
mb
20260906204540 86 167 1.0 7.0 0.00 0.26 0.26 79 1014.4
20260906203036 86 153 3.0 8.0 0.00 0.26 0.26 80 1014.7
20260906201535 85 133 1.0 4.0 0.00 0.26 0.26 81 1014.4
20260906200042 83 200 1.0 6.0 0.00 0.26 0.26 85 1014.5
20260906194534 81 0 1.0 6.0 0.01 0.26 0.26 87 1014.9
20260906193048 81 238 0.0 8.0 0.02 0.26 0.26 89 1015.4
20260906191539 80 167 1.0 6.0 0.02 0.26 0.26 89 1015.5
20260906190036 79 0 0.0 7.0 0.02 0.26 0.26 89 1015.9
20260906184540 80 0 0.0 4.0 0.01 0.25 0.25 89 1015.9
20260906183036 80 119 1.0 7.0 0.01 0.24 0.24 89 1015.7
20260906181552 80 67 2.0 9.0 0.03 0.24 0.24 88 1015.9
20260906180037 81 105 1.0 3.0 0.12 0.24 0.24 90 1015.9
20260906174541 80 0 0.0 2.0 0.23 0.58 0.24 90 1016.1
20260906173035 79 0 0.0 3.0 0.23 0.57 0.23 88 1016.1
20260906171534 79 0 1.0 8.0 0.21 0.55 0.21 87 1016.3
20260906170038 81 67 4.0 14.0 0.11 0.45 0.11 82 1016.4
20260906164542 87 180 1.0 6.0 0.00 0.34 0.00 81 1016.1
20260906163035 88 227 1.0 7.0 0.00 0.34 0.00 76 1015.9
20260906161536 89 0 0.0 2.0 0.00 0.34 0.00 74 1015.7
20260906160035 88 0 0.0 5.0 0.00 0.34 0.00 75 1015.6
20260906154543 89 0 0.0 4.0 0.00 0.34 0.00 75 1015.6
20260906153038 88 0 0.0 3.0 0.00 0.34 0.00 76 1015.6
20260906151536 89 67 0.0 3.0 0.00 0.34 0.00 77 1015.6
20260906150035 89 327 1.0 3.0 0.00 0.34 0.00 77 1015.5
20260906144541 88 299 0.0 4.0 0.00 0.34 0.00 78 1015.5
20260906143037 87 0 0.0 3.0 0.00 0.34 0.00 80 1015.6
20260906141536 86 0 0.0 2.0 0.00 0.34 0.00 81 1015.7
20260906140037 86 123 0.0 2.0 0.00 0.34 0.00 82 1015.7
20260906134536 85 123 1.0 3.0 0.00 0.34 0.00 83 1015.5
20260906133034 83 0 0.0 2.0 0.00 0.34 0.00 86 1015.5
20260906131538 81 0 0.0 0.0 0.00 0.34 0.00 88 1015.6
20260906130040 80 0 0.0 0.0 0.00 0.34 0.00 89 1015.3
20260906124539 80 0 0.0 0.0 0.00 0.34 0.00 89 1015.2
20260906123039 80 0 0.0 0.0 0.00 0.34 0.00 89 1015.0
20260906121532 80 0 0.0 1.0 0.00 0.34 0.00 89 1014.9
20260906120044 80 0 0.0 0.0 0.00 0.34 0.00 89 1014.6
20260906114545 80 0 0.0 0.0 0.00 0.34 0.00 88 1014.5
20260906113035 80 0 0.0 0.0 0.00 0.34 0.00 88 1014.3
20260906111539 80 0 0.0 1.0 0.00 0.34 0.00 88 1014.5
20260906110036 80 0 0.0 0.0 0.00 0.34 0.00 88 1014.4
20260906104538 81 0 0.0 0.0 0.00 0.34 0.00 87 1014.3
20260906103038 81 0 0.0 0.0 0.00 0.34 0.00 87 1014.1
20260906101533 81 0 0.0 0.0 0.00 0.34 0.00 86 1014.0
20260906100035 81 0 0.0 0.0 0.00 0.34 0.00 86 1014.1
20260906094556 82 0 0.0 0.0 0.00 0.34 0.00 85 1014.1
20260906093049 82 0 0.0 0.0 0.00 0.34 0.00 85 1014.1
20260906091536 83 0 0.0 0.0 0.00 0.34 0.00 84 1014.1
20260906090035 83 0 0.0 0.0 0.00 0.34 0.00 84 1013.9
20260906084534 83 0 0.0 0.0 0.00 0.34 0.00 83 1013.8
20260906083044 83 0 0.0 0.0 0.00 0.34 0.00 83 1013.9
20260906081538 83 0 0.0 0.0 0.00 0.34 0.00 83 1013.9
20260906080040 83 0 0.0 2.0 0.00 0.34 0.00 83 1014.0
20260906074535 83 0 0.0 2.0 0.00 0.34 0.00 83 1014.1
20260906073041 83 0 0.0 3.0 0.00 0.34 0.00 83 1014.3
20260906071534 83 0 0.0 2.0 0.00 0.34 0.00 83 1014.3
20260906070035 83 0 0.0 4.0 0.00 0.34 0.00 83 1014.3
20260906064534 84 162 0.0 4.0 0.00 0.34 0.00 82 1014.3
20260906063036 84 157 1.0 4.0 0.00 0.34 0.00 82 1014.3
20260906061535 84 0 0.0 3.0 0.00 0.34 0.00 82 1014.4
20260906060035 84 161 0.0 3.0 0.00 0.34 0.00 82 1014.5
20260906054539 84 0 0.0 4.0 0.00 0.34 0.00 83 1014.3
20260906053039 84 0 0.0 4.0 0.00 0.34 0.00 83 1014.3
20260906051548 84 142 0.0 3.0 0.00 0.34 0.00 83 1014.5
20260906050036 84 0 0.0 6.0 0.00 0.34 0.00 83 1014.5
20260906044533 84 0 0.0 3.0 0.00 0.34 0.34 83 1014.6
20260906043035 84 134 0.0 5.0 0.00 0.34 0.34 84 1014.5
20260906041534 84 0 0.0 4.0 0.00 0.34 0.34 83 1014.6
20260906040037 84 138 0.0 4.0 0.00 0.34 0.34 83 1014.5
20260906034536 84 170 0.0 3.0 0.00 0.34 0.34 84 1014.6
20260906033045 83 0 0.0 2.0 0.00 0.34 0.34 84 1014.4
20260906031539 83 0 0.0 3.0 0.00 0.34 0.34 84 1014.3
20260906030037 83 0 0.0 5.0 0.00 0.34 0.34 84 1014.3
20260906024546 83 107 1.0 4.0 0.00 0.34 0.34 84 1014.1
20260906023036 83 0 1.0 4.0 0.00 0.34 0.34 84 1013.8
20260906021536 83 109 0.0 5.0 0.00 0.34 0.34 84 1013.6
20260906020036 83 54 2.0 6.0 0.00 0.34 0.34 83 1013.6
20260906014551 83 65 1.0 6.0 0.00 0.34 0.34 83 1013.6
20260906013043 84 59 2.0 8.0 0.00 0.34 0.34 82 1013.5
20260906011535 86 0 1.0 5.0 0.00 0.34 0.34 79 1013.4
20260906010036 87 99 1.0 4.0 0.00 0.34 0.34 77 1013.4
20260906004534 87 115 1.0 7.0 0.00 0.34 0.34 76 1013.4
20260906003035 87 64 2.0 8.0 0.00 0.34 0.34 74 1013.3
20260906001534 88 86 1.0 6.0 0.00 0.34 0.34 72 1013.4
20260906000041 89 99 1.0 8.0 0.00 0.34 0.34 69 1013.5
20260905234537 89 107 2.0 4.0 0.00 0.34 0.34 66 1013.7
20260905233035 90 0 0.0 5.0 0.00 0.34 0.34 66 1013.7
20260905231534 90 0 1.0 6.0 0.00 0.34 0.34 66 1013.5
20260905230035 90 109 2.0 7.0 0.00 0.34 0.34 65 1013.5
20260905224535 90 114 2.0 7.0 0.00 0.34 0.34 65 1013.2
20260905223035 91 80 3.0 7.0 0.00 0.34 0.34 65 1013.1
20260905221542 91 58 1.0 7.0 0.00 0.34 0.34 65 1013.0
20260905220035 92 77 2.0 5.0 0.00 0.34 0.34 64 1013.0
20260905214534 92 92 1.0 4.0 0.00 0.34 0.34 63 1012.9
20260905213049 92 0 0.0 3.0 0.00 0.34 0.34 63 1012.9
20260905211540 93 90 1.0 3.0 0.00 0.34 0.34 63 1013.3
20260905210048 92 107 2.0 9.0 0.00 0.34 0.34 63 1013.1